Погода в Чемодановке

Россия / Пензенская область     53°13′39″N   45°14′56″E
темп.,
°C
ветер,
м/с
пор.,
м/с
влажн.,
%
обл.,
%
осадки,
мм/ч
давл.,
гПа
погр.,
м
24 мая, вт
вт2400:00+2ююз25855 0.0 100687
03:00+2юз311875 0.0 1006259
06:00+6юз411715 0.0 1005402
09:00+12зюз69555 0.1 10051230
12:00+15зюз693579 0.1 10042704
15:00+15зсз693391 0.1 10052812
18:00+11ссз3551100 0.0 1006497
21:00+6сз2688100 0.3 1009391
25 мая, ср
ср2500:00+5зсз479379 0.3 1009504
03:00+2сз3693100 0.3 1010516
06:00+3сз368572 0.0 1011643
09:00+7сз464990 0.0 10121626
12:00+9сз5647100 0.1 10131958
15:00+9сз464894 0.1 10141683
18:00+9зсз365017 0.0 10141654
21:00+5з118060 0.2 101515
26 мая, чт
чт2600:00+2зюз11935 0.0 101611
03:00+1юз1194100 0.0 101610
06:00+5юз24795 0.0 1016218
09:00+11зюз455168 0.0 10151375
12:00+13зюз4653100 0.0 10141494
15:00+15ююз4759100 0.1 10121420
18:00+16ююз4762100 0.1 1010824
21:00+11ю3793100 0.8 1010167
27 мая, пт
пт2700:00+11ю41293100 0.2 1008557
03:00+11ююз61496100 1.9 10041213
06:00+11юз6139296 0.8 1004994
09:00+14зюз71478100 1.1 10041370
12:00+13юз61186100 1.2 10041169
15:00+14зюз5108468 2.6 10041340
18:00+13з511820 1.2 10051078
21:00+10з411870 1.3 1008511
28 мая, сб
сб2800:00+9зюз31191100 0.0 1009366
03:00+7ююз2895100 0.0 1009190
06:00+10ю41277100 0.0 1008484
09:00+16ююз6136179 0.0 10071280
12:00+18ююз71466100 0.1 10061820
15:00+14зюз51295100 1.4 1006894
18:00+12юз51293100 2.1 1008838
21:00+10юз4119582 2.1 1010418